Time,TemperatureF,DewpointF,PressureIn,WindDirection,WindDirectionDegrees,WindSpeedMPH,WindSpeedGustMPH,Humidity,HourlyPrecipIn,Conditions,Clouds,dailyrainin,SoftwareType,DateUTC
2013-02-01 00:02:00,22.3,15.5,29.81,WSW,247,0.0,0.0,75,0.00,,,0.00,LWC V2.10 B1813,2013-02-01 07:02:00,
2013-02-01 00:07:00,22.3,15.5,29.81,WSW,247,0.0,0.0,75,0.00,,,0.00,LWC V2.10 B1813,2013-02-01 07:07:00,
2013-02-01 00:12:00,22.3,15.5,29.81,SSW,202,0.0,0.0,75,0.00,,,0.00,LWC V2.10 B1813,2013-02-01 07:12:00,
2013-02-01 00:17:00,22.6,15.9,29.81,SW,225,0.0,57.3,75,0.00,,,0.00,LWC V2.10 B1813,2013-02-01 07:17:00,
2013-02-01 00:22:00,22.6,15.9,29.80,SW,225,0.0,0.0,75,0.00,,,0.00,LWC V2.10 B1813,2013-02-01 07:22:00,
2013-02-01 00:27:00,22.6,15.9,29.80,SW,225,0.0,0.0,75,0.00,,,0.00,LWC V2.10 B1813,2013-02-01 07:27:00,
2013-02-01 00:32:00,22.8,16.1,29.79,WSW,247,0.0,0.0,75,0.00,,,0.00,LWC V2.10 B1813,2013-02-01 07:32:00,
2013-02-01 00:37:00,22.8,16.1,29.79,WSW,247,0.0,0.0,75,0.00,,,0.00,LWC V2.10 B1813,2013-02-01 07:37:00,
2013-02-01 00:42:00,23.0,16.2,29.79,WSW,247,0.0,0.0,75,0.00,,,0.00,LWC V2.10 B1813,2013-02-01 07:42:00,
2013-02-01 00:47:00,23.0,16.2,29.79,WSW,247,0.0,0.0,75,0.00,,,0.00,LWC V2.10 B1813,2013-02-01 07:47:00,
2013-02-01 00:52:00,23.4,16.6,29.79,WSW,247,0.0,0.0,75,0.00,,,0.00,LWC V2.10 B1813,2013-02-01 07:52:00,
2013-02-01 00:57:00,23.4,16.6,29.79,WSW,247,0.0,0.0,75,0.00,,,0.00,LWC V2.10 B1813,2013-02-01 07:57:00,
2013-02-01 01:02:00,23.2,16.4,29.79,WSW,247,0.0,0.0,75,0.00,,,0.00,LWC V2.10 B1813,2013-02-01 08:02:00,
2013-02-01 01:07:00,22.3,15.5,29.79,WSW,247,0.0,0.0,75,0.00,,,0.00,LWC V2.10 B1813,2013-02-01 08:07:00,
2013-02-01 01:12:00,22.1,15.4,29.80,WSW,247,0.0,0.0,75,0.00,,,0.00,LWC V2.10 B1813,2013-02-01 08:12:00,
2013-02-01 01:17:00,21.9,15.2,29.79,WSW,247,0.0,0.0,75,0.00,,,0.00,LWC V2.10 B1813,2013-02-01 08:17:00,
2013-02-01 01:22:00,22.3,15.5,29.79,WSW,247,0.0,0.0,75,0.00,,,0.00,LWC V2.10 B1813,2013-02-01 08:22:00,
2013-02-01 01:27:00,22.3,15.8,29.79,WSW,247,0.0,0.0,76,0.00,,,0.00,LWC V2.10 B1813,2013-02-01 08:27:00,
2013-02-01 01:32:00,23.4,16.9,29.79,WSW,247,0.0,0.0,76,0.00,,,0.00,LWC V2.10 B1813,2013-02-01 08:32:00,
2013-02-01 01:37:00,23.5,17.1,29.79,WSW,247,0.0,0.0,76,0.00,,,0.00,LWC V2.10 B1813,2013-02-01 08:37:00,
2013-02-01 01:42:00,23.7,17.2,29.80,WSW,247,0.0,0.0,76,0.00,,,0.00,LWC V2.10 B1813,2013-02-01 08:42:00,
2013-02-01 01:47:00,23.5,17.1,29.80,NE,45,0.0,0.0,76,0.00,,,0.00,LWC V2.10 B1813,2013-02-01 08:47:00,
2013-02-01 01:52:00,23.5,17.1,29.79,NE,45,0.0,0.0,76,0.00,,,0.00,LWC V2.10 B1813,2013-02-01 08:52:00,
2013-02-01 01:57:00,23.5,17.1,29.79,NE,45,0.0,0.0,76,0.00,,,0.00,LWC V2.10 B1813,2013-02-01 08:57:00,
2013-02-01 02:02:00,23.4,16.9,29.79,NE,45,0.0,0.0,76,0.00,,,0.00,LWC V2.10 B1813,2013-02-01 09:02:00,
2013-02-01 02:07:00,23.2,16.7,29.79,NE,45,0.0,0.0,76,0.00,,,0.00,LWC V2.10 B1813,2013-02-01 09:07:00,
2013-02-01 02:12:00,22.8,16.4,29.79,NE,45,0.0,0.0,76,0.00,,,0.00,LWC V2.10 B1813,2013-02-01 09:12:00,
2013-02-01 02:17:00,22.6,16.5,29.79,NE,45,0.0,0.0,77,0.00,,,0.00,LWC V2.10 B1813,2013-02-01 09:17:00,
2013-02-01 02:22:00,22.6,16.5,29.79,NE,45,0.0,0.0,77,0.00,,,0.00,LWC V2.10 B1813,2013-02-01 09:22:00,
2013-02-01 02:27:00,22.3,16.1,29.79,NE,45,0.0,0.0,77,0.00,,,0.00,LWC V2.10 B1813,2013-02-01 09:27:00,
2013-02-01 02:32:00,21.9,15.8,29.79,NE,45,-999.0,0.0,77,0.00,,,0.00,LWC V2.10 B1813,2013-02-01 09:32:00,
2013-02-01 02:37:00,21.9,15.8,29.79,NE,45,-999.0,0.0,77,0.00,,,0.00,LWC V2.10 B1813,2013-02-01 09:37:00,
2013-02-01 02:42:00,21.6,15.6,29.78,NE,45,-999.0,0.0,77,0.00,,,0.00,LWC V2.10 B1813,2013-02-01 09:42:00,
2013-02-01 02:47:00,21.4,15.2,29.78,NE,45,-999.0,0.0,77,0.00,,,0.00,LWC V2.10 B1813,2013-02-01 09:47:00,
2013-02-01 02:52:00,21.4,15.2,29.78,NE,45,-999.0,0.0,77,0.00,,,0.00,LWC V2.10 B1813,2013-02-01 09:52:00,
2013-02-01 02:57:00,21.4,15.2,29.78,NE,45,-999.0,0.0,77,0.00,,,0.00,LWC V2.10 B1813,2013-02-01 09:57:00,
2013-02-01 03:02:00,21.0,14.9,29.79,NE,45,-999.0,0.0,77,0.00,,,0.00,LWC V2.10 B1813,2013-02-01 10:02:00,
2013-02-01 03:07:00,21.0,14.9,29.78,NE,45,-999.0,0.0,77,0.00,,,0.00,LWC V2.10 B1813,2013-02-01 10:07:00,
2013-02-01 03:12:00,21.0,14.9,29.79,NE,45,-999.0,0.0,77,0.00,,,0.00,LWC V2.10 B1813,2013-02-01 10:12:00,
2013-02-01 03:17:00,21.0,15.2,29.78,NE,45,0.0,0.0,78,0.00,,,0.00,LWC V2.10 B1813,2013-02-01 10:17:00,
2013-02-01 03:22:00,21.4,15.5,29.77,NE,45,0.0,0.0,78,0.00,,,0.00,LWC V2.10 B1813,2013-02-01 10:22:00,
2013-02-01 03:27:00,22.1,16.3,29.77,WSW,247,2.0,2.0,78,0.00,,,0.00,LWC V2.10 B1813,2013-02-01 10:27:00,
2013-02-01 03:32:00,22.3,16.1,29.76,WSW,247,2.0,2.0,77,0.00,,,0.00,LWC V2.10 B1813,2013-02-01 10:32:00,
2013-02-01 03:37:00,22.3,16.1,29.76,WSW,247,2.0,2.0,77,0.00,,,0.00,LWC V2.10 B1813,2013-02-01 10:37:00,
2013-02-01 03:42:00,22.6,16.5,29.77,WSW,247,2.0,2.0,77,0.00,,,0.00,LWC V2.10 B1813,2013-02-01 10:42:00,
2013-02-01 03:47:00,23.2,17.0,29.77,NNE,22,0.0,0.0,77,0.00,,,0.00,LWC V2.10 B1813,2013-02-01 10:47:00,
2013-02-01 03:52:00,23.0,16.9,29.77,NNE,22,0.0,0.0,77,0.00,,,0.00,LWC V2.10 B1813,2013-02-01 10:52:00,
2013-02-01 03:57:00,22.6,16.2,29.76,NNE,22,0.0,0.0,76,0.00,,,0.00,LWC V2.10 B1813,2013-02-01 10:57:00,
2013-02-01 04:02:00,22.5,16.3,29.76,NNE,22,0.0,0.0,77,0.00,,,0.00,LWC V2.10 B1813,2013-02-01 11:02:00,
2013-02-01 04:07:00,22.6,16.2,29.77,NNE,22,0.0,0.0,76,0.00,,,0.00,LWC V2.10 B1813,2013-02-01 11:07:00,
2013-02-01 04:12:00,23.2,16.7,29.76,NE,45,0.0,0.0,76,0.00,,,0.00,LWC V2.10 B1813,2013-02-01 11:12:00,
2013-02-01 04:17:00,23.0,16.6,29.76,NE,45,0.0,0.0,76,0.00,,,0.00,LWC V2.10 B1813,2013-02-01 11:17:00,
2013-02-01 04:22:00,23.2,16.7,29.76,North,0,0.0,0.0,76,0.00,,,0.00,LWC V2.10 B1813,2013-02-01 11:22:00,
2013-02-01 04:27:00,23.0,16.2,29.77,NE,45,0.0,0.0,75,0.00,,,0.00,LWC V2.10 B1813,2013-02-01 11:27:00,
2013-02-01 04:32:00,24.4,17.6,29.76,NE,45,0.0,0.0,75,0.00,,,0.00,LWC V2.10 B1813,2013-02-01 11:32:00,
2013-02-01 04:37:00,24.6,17.8,29.76,SE,135,0.0,0.0,75,0.00,,,0.00,LWC V2.10 B1813,2013-02-01 11:37:00,
2013-02-01 04:42:00,25.0,17.8,29.77,North,0,0.0,0.0,74,0.00,,,0.00,LWC V2.10 B1813,2013-02-01 11:42:00,
2013-02-01 04:47:00,25.0,17.5,29.78,West,270,0.0,0.0,73,0.00,,,0.00,LWC V2.10 B1813,2013-02-01 11:47:00,
2013-02-01 04:52:00,24.6,17.1,29.77,SE,135,0.0,0.0,73,0.00,,,0.00,LWC V2.10 B1813,2013-02-01 11:52:00,
2013-02-01 04:57:00,24.4,17.3,29.76,NE,45,0.0,0.0,74,0.00,,,0.00,LWC V2.10 B1813,2013-02-01 11:57:00,
2013-02-01 05:02:00,24.4,17.3,29.76,SSE,157,0.0,0.0,74,0.00,,,0.00,LWC V2.10 B1813,2013-02-01 12:02:00,
2013-02-01 05:07:00,24.4,17.6,29.76,NNE,22,0.0,0.0,75,0.00,,,0.00,LWC V2.10 B1813,2013-02-01 12:07:00,
2013-02-01 05:12:00,24.4,17.6,29.76,NNE,22,0.0,0.0,75,0.00,,,0.00,LWC V2.10 B1813,2013-02-01 12:12:00,
2013-02-01 05:17:00,24.4,17.6,29.77,NNE,22,0.0,0.0,75,0.00,,,0.00,LWC V2.10 B1813,2013-02-01 12:17:00,
2013-02-01 05:22:00,24.1,17.3,29.78,SSE,157,0.0,0.0,75,0.00,,,0.00,LWC V2.10 B1813,2013-02-01 12:22:00,
2013-02-01 05:27:00,23.5,16.8,29.77,SSE,157,0.0,0.0,75,0.00,,,0.00,LWC V2.10 B1813,2013-02-01 12:27:00,
2013-02-01 05:32:00,23.5,16.8,29.77,SSE,157,0.0,0.0,75,0.00,,,0.00,LWC V2.10 B1813,2013-02-01 12:32:00,
2013-02-01 05:37:00,23.2,16.7,29.77,SSE,157,0.0,0.0,76,0.00,,,0.00,LWC V2.10 B1813,2013-02-01 12:37:00,
2013-02-01 05:42:00,23.4,16.6,29.77,SSE,157,0.0,0.0,75,0.00,,,0.00,LWC V2.10 B1813,2013-02-01 12:42:00,
2013-02-01 05:47:00,23.4,16.6,29.77,West,270,0.0,0.0,75,0.00,,,0.00,LWC V2.10 B1813,2013-02-01 12:47:00,
2013-02-01 05:52:00,23.5,17.1,29.77,West,270,0.0,0.0,76,0.00,,,0.00,LWC V2.10 B1813,2013-02-01 12:52:00,
2013-02-01 05:57:00,23.7,16.9,29.76,West,270,0.0,0.0,75,0.00,,,0.00,LWC V2.10 B1813,2013-02-01 12:57:00,
2013-02-01 06:02:00,23.5,16.8,29.76,SW,225,0.0,0.0,75,0.00,,,0.00,LWC V2.10 B1813,2013-02-01 13:02:00,
2013-02-01 06:07:00,23.2,16.4,29.76,SW,225,0.0,0.0,75,0.00,,,0.00,LWC V2.10 B1813,2013-02-01 13:07:00,
2013-02-01 06:12:00,22.8,16.1,29.76,SW,225,0.0,0.0,75,0.00,,,0.00,LWC V2.10 B1813,2013-02-01 13:12:00,
2013-02-01 06:17:00,22.8,16.1,29.77,SW,225,0.0,0.0,75,0.00,,,0.00,LWC V2.10 B1813,2013-02-01 13:17:00,
2013-02-01 06:22:00,22.8,16.4,29.77,SW,225,0.0,0.0,76,0.00,,,0.00,LWC V2.10 B1813,2013-02-01 13:22:00,
2013-02-01 06:27:00,23.0,16.2,29.77,SW,225,0.0,0.0,75,0.00,,,0.00,LWC V2.10 B1813,2013-02-01 13:27:00,
2013-02-01 06:32:00,23.2,16.4,29.77,SW,225,0.0,0.0,75,0.00,,,0.00,LWC V2.10 B1813,2013-02-01 13:32:00,
2013-02-01 06:37:00,23.5,16.8,29.76,North,0,0.0,0.0,75,0.00,,,0.00,LWC V2.10 B1813,2013-02-01 13:37:00,
2013-02-01 06:42:00,23.9,17.1,29.76,NW,315,0.0,0.0,75,0.00,,,0.00,LWC V2.10 B1813,2013-02-01 13:42:00,
2013-02-01 06:47:00,23.9,17.1,29.76,NW,315,0.0,0.0,75,0.00,,,0.00,LWC V2.10 B1813,2013-02-01 13:47:00,
2013-02-01 06:52:00,23.9,17.1,29.76,North,0,0.0,0.0,75,0.00,,,0.00,LWC V2.10 B1813,2013-02-01 13:52:00,
2013-02-01 06:57:00,23.5,16.8,29.76,North,0,0.0,0.0,75,0.00,,,0.00,LWC V2.10 B1813,2013-02-01 13:57:00,
2013-02-01 07:02:00,23.5,16.4,29.76,NNW,337,0.0,0.0,74,0.00,,,0.00,LWC V2.10 B1813,2013-02-01 14:02:00,
2013-02-01 07:07:00,23.2,16.1,29.76,West,270,0.0,0.0,74,0.00,,,0.00,LWC V2.10 B1813,2013-02-01 14:07:00,
2013-02-01 07:12:00,23.2,16.1,29.76,West,270,0.0,0.0,74,0.00,,,0.00,LWC V2.10 B1813,2013-02-01 14:12:00,
2013-02-01 07:17:00,23.0,15.9,29.76,West,270,0.0,0.0,74,0.00,,,0.00,LWC V2.10 B1813,2013-02-01 14:17:00,
2013-02-01 07:22:00,22.5,15.4,29.76,West,270,0.0,0.0,74,0.00,,,0.00,LWC V2.10 B1813,2013-02-01 14:22:00,
2013-02-01 07:27:00,22.6,15.6,29.77,West,270,0.0,0.0,74,0.00,,,0.00,LWC V2.10 B1813,2013-02-01 14:27:00,
2013-02-01 07:32:00,22.6,15.6,29.76,WSW,247,0.0,0.0,74,0.00,,,0.00,LWC V2.10 B1813,2013-02-01 14:32:00,
2013-02-01 07:37:00,22.5,15.4,29.76,WSW,247,0.0,0.0,74,0.00,,,0.00,LWC V2.10 B1813,2013-02-01 14:37:00,
2013-02-01 07:42:00,22.8,15.8,29.77,WSW,247,0.0,0.0,74,0.00,,,0.00,LWC V2.10 B1813,2013-02-01 14:42:00,
2013-02-01 07:47:00,23.0,15.9,29.76,WSW,247,0.0,0.0,74,0.00,,,0.00,LWC V2.10 B1813,2013-02-01 14:47:00,
2013-02-01 07:52:00,23.0,15.9,29.77,WSW,247,0.0,0.0,74,0.00,,,0.00,LWC V2.10 B1813,2013-02-01 14:52:00,
2013-02-01 07:57:00,23.9,16.5,29.77,WSW,247,0.0,0.0,73,0.00,,,0.00,LWC V2.10 B1813,2013-02-01 14:57:00,
2013-02-01 08:02:00,23.9,16.5,29.77,WSW,247,0.0,0.0,73,0.00,,,0.00,LWC V2.10 B1813,2013-02-01 15:02:00,
2013-02-01 08:07:00,23.9,16.5,29.77,WSW,247,0.0,0.0,73,0.00,,,0.00,LWC V2.10 B1813,2013-02-01 15:07:00,
2013-02-01 08:12:00,-999.0,-99.9,29.77,WSW,247,-999.0,0.0,-999,0.00,,,0.00,LWC V2.10 B1813,2013-02-01 15:12:00,
2013-02-01 08:18:00,-999.0,-99.9,29.77,WSW,247,-999.0,0.0,-999,0.00,,,0.00,LWC V2.10 B1813,2013-02-01 15:18:00,
2013-02-01 08:23:00,27.3,19.1,29.78,WNW,292,0.0,0.0,73,0.00,,,0.00,LWC V2.10 B1813,2013-02-01 15:23:00,
2013-02-01 08:28:00,28.6,20.7,29.78,South,180,0.0,0.0,72,0.00,,,0.00,LWC V2.10 B1813,2013-02-01 15:28:00,
2013-02-01 08:33:00,29.3,20.8,29.77,South,180,0.0,0.0,70,0.00,,,0.00,LWC V2.10 B1813,2013-02-01 15:33:00,
2013-02-01 08:38:00,30.6,21.2,29.78,South,180,0.0,0.0,69,0.00,,,0.00,LWC V2.10 B1813,2013-02-01 15:38:00,
2013-02-01 08:43:00,30.9,21.2,29.77,South,180,0.0,0.0,67,0.00,,,0.00,LWC V2.10 B1813,2013-02-01 15:43:00,
2013-02-01 08:48:00,31.8,21.4,29.77,South,180,0.0,0.0,65,0.00,,,0.00,LWC V2.10 B1813,2013-02-01 15:48:00,
2013-02-01 08:53:00,32.4,21.9,29.77,South,180,0.0,0.0,65,0.00,,,0.00,LWC V2.10 B1813,2013-02-01 15:53:00,
2013-02-01 08:58:00,33.4,22.9,29.77,South,180,0.0,0.0,65,0.00,,,0.00,LWC V2.10 B1813,2013-02-01 15:58:00,
2013-02-01 09:03:00,34.3,23.4,29.77,South,180,0.0,0.0,64,0.00,,,0.00,LWC V2.10 B1813,2013-02-01 16:03:00,
2013-02-01 09:08:00,34.9,23.2,29.77,South,180,0.0,0.0,62,0.00,,,0.00,LWC V2.10 B1813,2013-02-01 16:08:00,
2013-02-01 09:13:00,35.8,24.1,29.77,SW,225,0.0,0.0,62,0.00,,,0.00,LWC V2.10 B1813,2013-02-01 16:13:00,
2013-02-01 09:18:00,36.3,24.2,29.76,SW,225,0.0,0.0,61,0.00,,,0.00,LWC V2.10 B1813,2013-02-01 16:18:00,
2013-02-01 09:23:00,36.7,24.4,29.76,ENE,67,0.0,0.0,61,0.00,,,0.00,LWC V2.10 B1813,2013-02-01 16:23:00,
2013-02-01 09:28:00,36.3,23.8,29.76,NE,45,0.0,0.0,60,0.00,,,0.00,LWC V2.10 B1813,2013-02-01 16:28:00,
2013-02-01 09:33:00,36.7,24.2,29.76,SSE,157,0.0,0.0,60,0.00,,,0.00,LWC V2.10 B1813,2013-02-01 16:33:00,
2013-02-01 09:38:00,37.6,24.5,29.76,South,180,0.0,0.0,59,0.00,,,0.00,LWC V2.10 B1813,2013-02-01 16:38:00,
2013-02-01 09:43:00,39.0,25.8,29.76,South,180,0.0,0.0,59,0.00,,,0.00,LWC V2.10 B1813,2013-02-01 16:43:00,
2013-02-01 09:48:00,39.4,25.3,29.76,South,180,0.0,0.0,57,0.00,,,0.00,LWC V2.10 B1813,2013-02-01 16:48:00,
2013-02-01 09:53:00,39.9,25.8,29.76,South,180,0.0,0.0,57,0.00,,,0.00,LWC V2.10 B1813,2013-02-01 16:53:00,
2013-02-01 09:58:00,41.2,27.0,29.76,SE,135,0.0,0.0,57,0.00,,,0.00,LWC V2.10 B1813,2013-02-01 16:58:00,
2013-02-01 10:03:00,41.4,26.7,29.77,SE,135,0.0,0.0,56,0.00,,,0.00,LWC V2.10 B1813,2013-02-01 17:03:00,
2013-02-01 10:08:00,41.9,25.5,29.76,NE,45,0.0,0.0,52,0.00,,,0.00,LWC V2.10 B1813,2013-02-01 17:08:00,
2013-02-01 10:13:00,41.4,25.0,29.76,NNE,22,0.0,0.0,52,0.00,,,0.00,LWC V2.10 B1813,2013-02-01 17:13:00,
2013-02-01 10:18:00,42.1,26.1,29.76,SE,135,3.8,3.8,53,0.00,,,0.00,LWC V2.10 B1813,2013-02-01 17:18:00,
2013-02-01 10:23:00,43.3,26.9,29.76,SE,135,0.0,3.8,52,0.00,,,0.00,LWC V2.10 B1813,2013-02-01 17:23:00,
2013-02-01 10:28:00,44.2,28.1,29.76,SE,135,0.0,0.0,53,0.00,,,0.00,LWC V2.10 B1813,2013-02-01 17:28:00,
2013-02-01 10:33:00,45.1,28.5,29.76,SE,135,0.0,0.0,52,0.00,,,0.00,LWC V2.10 B1813,2013-02-01 17:33:00,
2013-02-01 10:38:00,45.5,26.9,29.75,NE,45,1.1,1.1,48,0.00,,,0.00,LWC V2.10 B1813,2013-02-01 17:38:00,
2013-02-01 10:43:00,44.8,27.3,29.75,NE,45,0.0,0.0,50,0.00,,,0.00,LWC V2.10 B1813,2013-02-01 17:43:00,
2013-02-01 10:48:00,45.3,28.2,29.75,SSE,157,0.0,0.0,51,0.00,,,0.00,LWC V2.10 B1813,2013-02-01 17:48:00,
2013-02-01 10:53:00,46.6,28.4,29.74,SE,135,0.0,0.0,49,0.00,,,0.00,LWC V2.10 B1813,2013-02-01 17:53:00,
2013-02-01 10:58:00,46.2,27.5,29.74,SE,135,0.0,0.0,48,0.00,,,0.00,LWC V2.10 B1813,2013-02-01 17:58:00,
2013-02-01 11:03:00,47.1,27.2,29.74,NNE,22,0.0,0.0,46,0.00,,,0.00,LWC V2.10 B1813,2013-02-01 18:03:00,
2013-02-01 11:08:00,48.0,28.1,29.75,SE,135,0.0,2.0,46,0.00,,,0.00,LWC V2.10 B1813,2013-02-01 18:08:00,
2013-02-01 11:13:00,49.6,29.0,29.74,North,0,0.0,0.0,45,0.00,,,0.00,LWC V2.10 B1813,2013-02-01 18:13:00,
2013-02-01 11:18:00,48.7,26.5,29.74,NNE,22,0.0,0.0,42,0.00,,,0.00,LWC V2.10 B1813,2013-02-01 18:18:00,
2013-02-01 11:23:00,47.8,25.2,29.74,NNE,22,0.0,0.0,41,0.00,,,0.00,LWC V2.10 B1813,2013-02-01 18:23:00,
2013-02-01 11:28:00,48.4,26.8,29.74,SE,135,0.0,0.0,43,0.00,,,0.00,LWC V2.10 B1813,2013-02-01 18:28:00,
2013-02-01 11:33:00,50.2,27.9,29.74,SE,135,0.0,0.0,42,0.00,,,0.00,LWC V2.10 B1813,2013-02-01 18:33:00,
2013-02-01 11:38:00,50.9,28.0,29.74,SSW,202,0.0,0.0,41,0.00,,,0.00,LWC V2.10 B1813,2013-02-01 18:38:00,
2013-02-01 11:43:00,51.6,28.1,29.73,SE,135,0.9,0.9,40,0.00,,,0.00,LWC V2.10 B1813,2013-02-01 18:43:00,
2013-02-01 11:48:00,52.0,28.4,29.74,South,180,6.3,6.3,40,0.00,,,0.00,LWC V2.10 B1813,2013-02-01 18:48:00,
2013-02-01 11:53:00,51.4,27.2,29.74,SSE,157,5.6,5.6,39,0.00,,,0.00,LWC V2.10 B1813,2013-02-01 18:53:00,
2013-02-01 11:58:00,50.5,25.7,29.73,SSE,157,3.4,3.4,38,0.00,,,0.00,LWC V2.10 B1813,2013-02-01 18:58:00,
2013-02-01 12:03:00,50.2,25.4,29.73,SSE,157,0.0,0.0,38,0.00,,,0.00,LWC V2.10 B1813,2013-02-01 19:03:00,
2013-02-01 12:08:00,49.6,24.2,29.73,NNE,22,0.0,0.0,37,0.00,,,0.00,LWC V2.10 B1813,2013-02-01 19:08:00,
2013-02-01 12:13:00,49.8,25.1,29.73,SE,135,2.2,2.2,38,0.00,,,0.00,LWC V2.10 B1813,2013-02-01 19:13:00,
2013-02-01 12:18:00,50.5,25.0,29.73,SE,135,4.2,4.2,37,0.00,,,0.00,LWC V2.10 B1813,2013-02-01 19:18:00,
2013-02-01 12:23:00,51.1,24.8,29.72,SSE,157,0.0,5.6,36,0.00,,,0.00,LWC V2.10 B1813,2013-02-01 19:23:00,
2013-02-01 12:28:00,51.4,24.5,29.73,South,180,0.0,0.0,35,0.00,,,0.00,LWC V2.10 B1813,2013-02-01 19:28:00,
2013-02-01 12:33:00,52.5,24.8,29.72,SW,225,0.0,0.0,34,0.00,,,0.00,LWC V2.10 B1813,2013-02-01 19:33:00,
2013-02-01 12:38:00,53.8,25.2,29.72,South,180,4.0,4.0,33,0.00,,,0.00,LWC V2.10 B1813,2013-02-01 19:38:00,
2013-02-01 12:43:00,53.8,25.2,29.73,West,270,0.0,0.0,33,0.00,,,0.00,LWC V2.10 B1813,2013-02-01 19:43:00,
2013-02-01 12:48:00,54.0,25.3,29.73,WSW,247,4.0,4.0,33,0.00,,,0.00,LWC V2.10 B1813,2013-02-01 19:48:00,
2013-02-01 12:53:00,54.5,25.8,29.73,West,270,4.2,5.8,33,0.00,,,0.00,LWC V2.10 B1813,2013-02-01 19:53:00,
2013-02-01 12:58:00,54.7,25.9,29.73,WSW,247,0.0,0.0,33,0.00,,,0.00,LWC V2.10 B1813,2013-02-01 19:58:00,
2013-02-01 13:03:00,55.2,25.7,29.73,West,270,3.4,3.4,32,0.00,,,0.00,LWC V2.10 B1813,2013-02-01 20:03:00,
2013-02-01 13:08:00,55.0,25.5,29.73,SSW,202,6.7,6.7,32,0.00,,,0.00,LWC V2.10 B1813,2013-02-01 20:08:00,
2013-02-01 13:13:00,54.3,24.9,29.73,SSW,202,11.2,14.1,32,0.00,,,0.00,LWC V2.10 B1813,2013-02-01 20:13:00,
2013-02-01 13:18:00,53.8,25.2,29.73,SW,225,11.0,11.0,33,0.00,,,0.00,LWC V2.10 B1813,2013-02-01 20:18:00,
2013-02-01 13:23:00,53.8,25.2,29.73,SW,225,0.0,5.4,33,0.00,,,0.00,LWC V2.10 B1813,2013-02-01 20:23:00,
2013-02-01 13:28:00,54.0,25.3,29.73,West,270,3.8,3.8,33,0.00,,,0.00,LWC V2.10 B1813,2013-02-01 20:28:00,
2013-02-01 13:33:00,54.1,25.5,29.73,West,270,7.6,7.6,33,0.00,,,0.00,LWC V2.10 B1813,2013-02-01 20:33:00,
2013-02-01 13:38:00,54.0,25.3,29.74,SW,225,4.5,4.5,33,0.00,,,0.00,LWC V2.10 B1813,2013-02-01 20:38:00,
2013-02-01 13:43:00,54.0,24.7,29.73,SW,225,7.6,7.6,32,0.00,,,0.00,LWC V2.10 B1813,2013-02-01 20:43:00,
2013-02-01 13:48:00,53.4,24.9,29.74,South,180,6.3,6.3,33,0.00,,,0.00,LWC V2.10 B1813,2013-02-01 20:48:00,
2013-02-01 13:53:00,53.1,23.9,29.74,WSW,247,8.3,8.3,32,0.00,,,0.00,LWC V2.10 B1813,2013-02-01 20:53:00,
2013-02-01 13:58:00,53.2,24.0,29.74,West,270,0.0,0.0,32,0.00,,,0.00,LWC V2.10 B1813,2013-02-01 20:58:00,
2013-02-01 14:03:00,52.5,24.4,29.74,SSW,202,11.2,11.2,33,0.00,,,0.00,LWC V2.10 B1813,2013-02-01 21:03:00,
2013-02-01 14:08:00,52.3,24.6,29.74,SW,225,7.4,7.4,34,0.00,,,0.00,LWC V2.10 B1813,2013-02-01 21:08:00,
2013-02-01 14:13:00,52.0,23.6,29.75,SSW,202,6.7,6.7,33,0.00,,,0.00,LWC V2.10 B1813,2013-02-01 21:13:00,
2013-02-01 14:18:00,51.4,23.1,29.75,NNW,337,0.0,0.0,33,0.00,,,0.00,LWC V2.10 B1813,2013-02-01 21:18:00,
2013-02-01 14:23:00,52.3,23.9,29.75,WSW,247,0.0,3.6,33,0.00,,,0.00,LWC V2.10 B1813,2013-02-01 21:23:00,
2013-02-01 14:28:00,52.3,23.2,29.75,SSW,202,6.7,6.7,32,0.00,,,0.00,LWC V2.10 B1813,2013-02-01 21:28:00,
2013-02-01 14:33:00,52.2,23.1,29.75,NW,315,0.0,0.0,32,0.00,,,0.00,LWC V2.10 B1813,2013-02-01 21:33:00,
2013-02-01 14:38:00,51.8,22.1,29.75,East,90,7.6,7.6,31,0.00,,,0.00,LWC V2.10 B1813,2013-02-01 21:38:00,
2013-02-01 14:43:00,51.6,21.2,29.75,NE,45,4.9,4.9,30,0.00,,,0.00,LWC V2.10 B1813,2013-02-01 21:43:00,
2013-02-01 14:48:00,51.1,20.7,29.75,WSW,247,0.0,0.0,30,0.00,,,0.00,LWC V2.10 B1813,2013-02-01 21:48:00,
2013-02-01 14:53:00,50.2,19.9,29.75,WSW,247,7.6,7.6,30,0.00,,,0.00,LWC V2.10 B1813,2013-02-01 21:53:00,
2013-02-01 14:58:00,48.7,20.1,29.76,SW,225,0.0,0.0,32,0.00,,,0.00,LWC V2.10 B1813,2013-02-01 21:58:00,
2013-02-01 15:03:00,47.8,18.7,29.76,West,270,0.0,0.0,31,0.00,,,0.00,LWC V2.10 B1813,2013-02-01 22:03:00,
2013-02-01 15:08:00,47.3,18.8,29.76,West,270,3.8,4.0,32,0.00,,,0.00,LWC V2.10 B1813,2013-02-01 22:08:00,
2013-02-01 15:13:00,47.1,18.7,29.76,North,0,5.4,5.4,32,0.00,,,0.00,LWC V2.10 B1813,2013-02-01 22:13:00,
2013-02-01 15:18:00,46.6,18.5,29.76,NW,315,0.0,0.0,32,0.00,,,0.00,LWC V2.10 B1813,2013-02-01 22:18:00,
2013-02-01 15:23:00,46.9,18.5,29.76,NW,315,7.6,7.6,32,0.00,,,0.00,LWC V2.10 B1813,2013-02-01 22:23:00,
2013-02-01 15:28:00,46.9,18.5,29.76,WSW,247,1.8,1.8,32,0.00,,,0.00,LWC V2.10 B1813,2013-02-01 22:28:00,
2013-02-01 15:33:00,46.9,18.5,29.76,WNW,292,0.0,0.0,32,0.00,,,0.00,LWC V2.10 B1813,2013-02-01 22:33:00,
2013-02-01 15:38:00,46.9,18.5,29.76,West,270,2.7,2.7,32,0.00,,,0.00,LWC V2.10 B1813,2013-02-01 22:38:00,
2013-02-01 15:43:00,47.1,18.0,29.76,West,270,0.0,0.0,31,0.00,,,0.00,LWC V2.10 B1813,2013-02-01 22:43:00,
2013-02-01 15:48:00,46.6,17.7,29.77,SW,225,2.5,2.5,31,0.00,,,0.00,LWC V2.10 B1813,2013-02-01 22:48:00,
2013-02-01 15:53:00,46.2,17.9,29.77,NNE,22,2.0,5.1,32,0.00,,,0.00,LWC V2.10 B1813,2013-02-01 22:53:00,
2013-02-01 15:58:00,45.9,17.5,29.76,NNE,22,7.4,7.4,32,0.00,,,0.00,LWC V2.10 B1813,2013-02-01 22:58:00,
2013-02-01 16:03:00,45.7,17.4,29.76,SW,225,5.1,5.1,32,0.00,,,0.00,LWC V2.10 B1813,2013-02-01 23:03:00,
2013-02-01 16:08:00,45.3,17.1,29.76,SSW,202,1.8,5.1,32,0.00,,,0.00,LWC V2.10 B1813,2013-02-01 23:08:00,
2013-02-01 16:13:00,45.0,17.4,29.76,SW,225,0.0,0.0,33,0.00,,,0.00,LWC V2.10 B1813,2013-02-01 23:13:00,
2013-02-01 16:18:00,44.6,17.2,29.77,West,270,0.0,3.8,33,0.00,,,0.00,LWC V2.10 B1813,2013-02-01 23:18:00,
2013-02-01 16:23:00,44.4,16.9,29.76,North,0,2.0,2.0,33,0.00,,,0.00,LWC V2.10 B1813,2013-02-01 23:23:00,
2013-02-01 16:28:00,44.2,16.8,29.76,NW,315,0.0,0.0,33,0.00,,,0.00,LWC V2.10 B1813,2013-02-01 23:28:00,
2013-02-01 16:33:00,43.9,16.4,29.76,WSW,247,0.0,0.0,33,0.00,,,0.00,LWC V2.10 B1813,2013-02-01 23:33:00,
2013-02-01 16:38:00,43.7,16.3,29.76,North,0,2.7,2.7,33,0.00,,,0.00,LWC V2.10 B1813,2013-02-01 23:38:00,
2013-02-01 16:43:00,43.7,16.9,29.76,North,0,0.0,0.0,34,0.00,,,0.00,LWC V2.10 B1813,2013-02-01 23:43:00,
2013-02-01 16:48:00,43.0,16.3,29.76,WSW,247,0.0,0.0,34,0.00,,,0.00,LWC V2.10 B1813,2013-02-01 23:48:00,
2013-02-01 16:53:00,42.4,16.5,29.76,SW,225,2.5,2.5,35,0.00,,,0.00,LWC V2.10 B1813,2013-02-01 23:53:00,
2013-02-01 16:58:00,41.9,16.7,29.76,SW,225,0.0,0.0,36,0.00,,,0.00,LWC V2.10 B1813,2013-02-01 23:58:00,
2013-02-01 17:03:00,41.5,17.0,29.76,SW,225,0.0,0.0,37,0.00,,,0.00,LWC V2.10 B1813,2013-02-02 00:03:00,
2013-02-01 17:08:00,41.2,16.7,29.76,SW,225,0.0,0.0,37,0.00,,,0.00,LWC V2.10 B1813,2013-02-02 00:08:00,
2013-02-01 17:13:00,41.0,16.6,29.76,SW,225,0.0,0.0,37,0.00,,,0.00,LWC V2.10 B1813,2013-02-02 00:13:00,
2013-02-01 17:18:00,39.7,16.7,29.76,SW,225,0.0,0.0,38,0.00,,,0.00,LWC V2.10 B1813,2013-02-02 00:18:00,
2013-02-01 17:23:00,39.0,16.1,29.76,NE,45,0.0,2.0,39,0.00,,,0.00,LWC V2.10 B1813,2013-02-02 00:23:00,
2013-02-01 17:28:00,39.9,16.2,29.76,SSW,202,0.0,0.0,38,0.00,,,0.00,LWC V2.10 B1813,2013-02-02 00:28:00,
2013-02-01 17:33:00,40.3,16.6,29.77,West,270,0.0,0.0,38,0.00,,,0.00,LWC V2.10 B1813,2013-02-02 00:33:00,
2013-02-01 17:38:00,39.7,16.1,29.77,South,180,0.0,0.0,38,0.00,,,0.00,LWC V2.10 B1813,2013-02-02 00:38:00,
2013-02-01 17:43:00,39.9,16.2,29.77,SW,225,0.0,0.0,38,0.00,,,0.00,LWC V2.10 B1813,2013-02-02 00:43:00,
2013-02-01 17:48:00,40.5,16.1,29.78,South,180,0.0,0.0,38,0.00,,,0.00,LWC V2.10 B1813,2013-02-02 00:48:00,
2013-02-01 17:53:00,39.9,16.2,29.78,South,180,0.0,0.0,38,0.00,,,0.00,LWC V2.10 B1813,2013-02-02 00:53:00,
2013-02-01 17:58:00,39.4,15.7,29.78,South,180,0.0,0.0,38,0.00,,,0.00,LWC V2.10 B1813,2013-02-02 00:58:00,
2013-02-01 18:03:00,39.0,15.9,29.78,South,180,0.0,0.0,39,0.00,,,0.00,LWC V2.10 B1813,2013-02-02 01:03:00,
2013-02-01 18:08:00,38.5,15.6,29.79,South,180,0.0,0.0,39,0.00,,,0.00,LWC V2.10 B1813,2013-02-02 01:08:00,
2013-02-01 18:13:00,38.1,15.9,29.79,SSE,157,0.0,0.0,40,0.00,,,0.00,LWC V2.10 B1813,2013-02-02 01:13:00,
2013-02-01 18:18:00,38.3,16.2,29.79,SSE,157,6.0,6.0,40,0.00,,,0.00,LWC V2.10 B1813,2013-02-02 01:18:00,
2013-02-01 18:23:00,39.0,16.7,29.80,SSE,157,6.5,6.5,40,0.00,,,0.00,LWC V2.10 B1813,2013-02-02 01:23:00,
2013-02-01 18:28:00,39.4,17.0,29.80,South,180,0.0,0.0,40,0.00,,,0.00,LWC V2.10 B1813,2013-02-02 01:28:00,
2013-02-01 18:33:00,39.0,16.7,29.80,SSE,157,0.0,0.0,40,0.00,,,0.00,LWC V2.10 B1813,2013-02-02 01:33:00,
2013-02-01 18:38:00,38.8,16.6,29.80,SSE,157,1.1,1.1,40,0.00,,,0.00,LWC V2.10 B1813,2013-02-02 01:38:00,
2013-02-01 18:43:00,38.8,16.6,29.81,SSE,157,1.1,1.1,40,0.00,,,0.00,LWC V2.10 B1813,2013-02-02 01:43:00,
2013-02-01 18:48:00,38.3,16.1,29.81,SSE,157,1.1,1.1,40,0.00,,,0.00,LWC V2.10 B1813,2013-02-02 01:48:00,
2013-02-01 18:53:00,37.8,16.1,29.81,South,180,0.0,1.1,41,0.00,,,0.00,LWC V2.10 B1813,2013-02-02 01:53:00,
2013-02-01 18:58:00,37.9,16.3,29.81,South,180,0.0,0.0,41,0.00,,,0.00,LWC V2.10 B1813,2013-02-02 01:58:00,
2013-02-01 19:03:00,38.1,16.4,29.81,South,180,1.8,1.8,41,0.00,,,0.00,LWC V2.10 B1813,2013-02-02 02:03:00,
2013-02-01 19:08:00,38.3,16.6,29.82,SE,135,0.0,1.8,41,0.00,,,0.00,LWC V2.10 B1813,2013-02-02 02:08:00,
2013-02-01 19:13:00,38.5,16.8,29.82,SE,135,0.0,0.0,41,0.00,,,0.00,LWC V2.10 B1813,2013-02-02 02:13:00,
2013-02-01 19:18:00,38.8,17.1,29.82,South,180,2.0,2.0,41,0.00,,,0.00,LWC V2.10 B1813,2013-02-02 02:18:00,
2013-02-01 19:23:00,38.8,17.1,29.82,SSE,157,6.9,6.9,41,0.00,,,0.00,LWC V2.10 B1813,2013-02-02 02:23:00,
2013-02-01 19:28:00,38.8,17.6,29.81,SE,135,6.3,6.3,42,0.00,,,0.00,LWC V2.10 B1813,2013-02-02 02:28:00,
2013-02-01 19:33:00,38.8,17.6,29.81,SE,135,0.9,3.6,42,0.00,,,0.00,LWC V2.10 B1813,2013-02-02 02:33:00,
2013-02-01 19:38:00,38.5,17.3,29.81,SSE,157,7.8,7.8,42,0.00,,,0.00,LWC V2.10 B1813,2013-02-02 02:38:00,
2013-02-01 19:43:00,38.8,18.1,29.82,South,180,6.9,6.9,43,0.00,,,0.00,LWC V2.10 B1813,2013-02-02 02:43:00,
2013-02-01 19:48:00,38.8,18.1,29.82,SE,135,7.2,7.2,43,0.00,,,0.00,LWC V2.10 B1813,2013-02-02 02:48:00,
2013-02-01 19:53:00,38.7,18.0,29.82,SE,135,0.0,0.0,43,0.00,,,0.00,LWC V2.10 B1813,2013-02-02 02:53:00,
2013-02-01 19:58:00,38.5,18.3,29.82,South,180,3.1,3.1,44,0.00,,,0.00,LWC V2.10 B1813,2013-02-02 02:58:00,
2013-02-01 20:03:00,38.1,18.0,29.82,South,180,9.6,9.6,44,0.00,,,0.00,LWC V2.10 B1813,2013-02-02 03:03:00,
2013-02-01 20:08:00,37.9,18.4,29.82,SSE,157,7.6,7.6,45,0.00,,,0.00,LWC V2.10 B1813,2013-02-02 03:08:00,
2013-02-01 20:13:00,37.8,18.7,29.82,SE,135,4.9,4.9,46,0.00,,,0.00,LWC V2.10 B1813,2013-02-02 03:13:00,
2013-02-01 20:18:00,37.2,18.2,29.83,SSE,157,0.0,0.0,46,0.00,,,0.00,LWC V2.10 B1813,2013-02-02 03:18:00,
2013-02-01 20:23:00,37.2,18.2,29.83,SSE,157,0.0,0.0,46,0.00,,,0.00,LWC V2.10 B1813,2013-02-02 03:23:00,
2013-02-01 20:28:00,37.4,18.9,29.83,South,180,0.0,0.0,47,0.00,,,0.00,LWC V2.10 B1813,2013-02-02 03:28:00,
2013-02-01 20:33:00,37.0,18.6,29.83,South,180,2.2,4.7,47,0.00,,,0.00,LWC V2.10 B1813,2013-02-02 03:33:00,
2013-02-01 20:38:00,37.0,19.1,29.82,SE,135,1.3,1.3,48,0.00,,,0.00,LWC V2.10 B1813,2013-02-02 03:38:00,
2013-02-01 20:43:00,36.3,18.5,29.83,ESE,112,1.6,1.6,48,0.00,,,0.00,LWC V2.10 B1813,2013-02-02 03:43:00,
2013-02-01 20:48:00,36.3,19.0,29.83,ESE,112,1.6,1.6,49,0.00,,,0.00,LWC V2.10 B1813,2013-02-02 03:48:00,
2013-02-01 20:53:00,36.3,19.0,29.83,SE,135,2.9,2.9,49,0.00,,,0.00,LWC V2.10 B1813,2013-02-02 03:53:00,
2013-02-01 20:58:00,35.4,18.2,29.83,SE,135,2.9,2.9,49,0.00,,,0.00,LWC V2.10 B1813,2013-02-02 03:58:00,
2013-02-01 21:03:00,35.4,18.2,29.83,SE,135,2.9,2.9,49,0.00,,,0.00,LWC V2.10 B1813,2013-02-02 04:03:00,
2013-02-01 21:08:00,35.4,18.2,29.84,SE,135,2.9,2.9,49,0.00,,,0.00,LWC V2.10 B1813,2013-02-02 04:08:00,
2013-02-01 21:13:00,35.4,18.2,29.84,SE,135,2.9,2.9,49,0.00,,,0.00,LWC V2.10 B1813,2013-02-02 04:13:00,
2013-02-01 21:18:00,35.4,18.2,29.84,SE,135,2.9,2.9,49,0.00,,,0.00,LWC V2.10 B1813,2013-02-02 04:18:00,
2013-02-01 21:23:00,34.3,18.5,29.84,SE,135,2.9,2.9,52,0.00,,,0.00,LWC V2.10 B1813,2013-02-02 04:23:00,
2013-02-01 21:28:00,34.3,18.5,29.84,SE,135,2.9,2.9,52,0.00,,,0.00,LWC V2.10 B1813,2013-02-02 04:28:00,
2013-02-01 21:33:00,34.3,18.5,29.84,ENE,67,0.0,0.0,52,0.00,,,0.00,LWC V2.10 B1813,2013-02-02 04:33:00,
2013-02-01 21:38:00,32.5,16.8,29.84,ENE,67,0.0,0.0,52,0.00,,,0.00,LWC V2.10 B1813,2013-02-02 04:38:00,
2013-02-01 21:43:00,32.2,16.9,29.84,ENE,67,0.0,0.0,53,0.00,,,0.00,LWC V2.10 B1813,2013-02-02 04:43:00,
2013-02-01 21:48:00,32.2,16.9,29.84,ENE,67,0.0,0.0,53,0.00,,,0.00,LWC V2.10 B1813,2013-02-02 04:48:00,
2013-02-01 21:53:00,32.2,16.9,29.84,ENE,67,0.0,0.0,53,0.00,,,0.00,LWC V2.10 B1813,2013-02-02 04:53:00,
2013-02-01 21:58:00,-999.0,-99.9,29.85,ENE,67,-999.0,0.0,-999,0.00,,,0.00,LWC V2.10 B1813,2013-02-02 04:58:00,
2013-02-01 22:00:00,-999.0,-99.9,29.85,ENE,67,-999.0,0.0,-999,0.00,,,0.00,LWC V2.10 B1813,2013-02-02 05:00:00,
2013-02-01 22:01:00,-999.0,-99.9,29.85,ENE,67,-999.0,0.0,-999,0.00,,,0.00,LWC V2.10 B1813,2013-02-02 05:01:00,
2013-02-01 22:03:00,-999.0,-99.9,29.84,ENE,67,-999.0,0.0,-999,0.00,,,0.00,LWC V2.10 B1813,2013-02-02 05:03:00,
2013-02-01 22:08:00,-999.0,-99.9,29.85,ENE,67,-999.0,0.0,-999,0.00,,,0.00,LWC V2.10 B1813,2013-02-02 05:08:00,
2013-02-01 22:13:00,-999.0,-99.9,29.85,ENE,67,-999.0,0.0,-999,0.00,,,0.00,LWC V2.10 B1813,2013-02-02 05:13:00,
2013-02-01 22:18:00,30.4,16.9,29.84,ENE,67,-999.0,0.0,57,0.00,,,0.00,LWC V2.10 B1813,2013-02-02 05:18:00,
2013-02-01 22:24:00,30.4,16.9,29.84,ENE,67,-999.0,0.0,57,0.00,,,0.00,LWC V2.10 B1813,2013-02-02 05:24:00,
2013-02-01 22:29:00,30.4,16.9,29.84,ENE,67,-999.0,0.0,57,0.00,,,0.00,LWC V2.10 B1813,2013-02-02 05:29:00,
2013-02-01 22:34:00,29.1,15.7,29.84,ENE,67,-999.0,0.0,57,0.00,,,0.00,LWC V2.10 B1813,2013-02-02 05:34:00,
2013-02-01 22:39:00,29.1,15.7,29.84,ENE,67,-999.0,0.0,57,0.00,,,0.00,LWC V2.10 B1813,2013-02-02 05:39:00,
2013-02-01 22:44:00,29.1,15.7,29.84,ENE,67,-999.0,0.0,57,0.00,,,0.00,LWC V2.10 B1813,2013-02-02 05:44:00,
2013-02-01 22:50:00,-999.0,-99.9,29.84,ENE,67,-999.0,0.0,-999,0.00,,,0.00,LWC V2.10 B1813,2013-02-02 05:50:00,
2013-02-01 22:55:00,-999.0,-99.9,29.85,ENE,67,-999.0,0.0,-999,0.00,,,0.00,LWC V2.10 B1813,2013-02-02 05:55:00,
2013-02-01 23:00:00,-999.0,-99.9,29.85,ENE,67,-999.0,0.0,-999,0.00,,,0.00,LWC V2.10 B1813,2013-02-02 06:00:00,
2013-02-01 23:05:00,-999.0,-99.9,29.85,ENE,67,-999.0,0.0,-999,0.00,,,0.00,LWC V2.10 B1813,2013-02-02 06:05:00,
2013-02-01 23:11:00,-999.0,-99.9,29.86,ENE,67,-999.0,0.0,-999,0.00,,,0.00,LWC V2.10 B1813,2013-02-02 06:11:00,
2013-02-01 23:16:00,-999.0,-99.9,29.86,ENE,67,-999.0,0.0,-999,0.00,,,0.00,LWC V2.10 B1813,2013-02-02 06:16:00,
2013-02-01 23:21:00,-999.0,-99.9,29.86,ENE,67,-999.0,0.0,-999,0.00,,,0.00,LWC V2.10 B1813,2013-02-02 06:21:00,
2013-02-01 23:26:00,-999.0,-99.9,29.86,ENE,67,-999.0,0.0,-999,0.00,,,0.00,LWC V2.10 B1813,2013-02-02 06:26:00,
2013-02-01 23:31:00,-999.0,-99.9,29.86,ENE,67,-999.0,0.0,-999,0.00,,,0.00,LWC V2.10 B1813,2013-02-02 06:31:00,
2013-02-01 23:36:00,-999.0,-99.9,29.86,ENE,67,-999.0,0.0,-999,0.00,,,0.00,LWC V2.10 B1813,2013-02-02 06:36:00,
2013-02-01 23:41:00,-999.0,-99.9,29.86,ENE,67,-999.0,0.0,-999,0.00,,,0.00,LWC V2.10 B1813,2013-02-02 06:41:00,
2013-02-01 23:47:00,-999.0,-99.9,29.86,ENE,67,-999.0,0.0,-999,0.00,,,0.00,LWC V2.10 B1813,2013-02-02 06:47:00,
2013-02-01 23:52:00,-999.0,-99.9,29.87,ENE,67,-999.0,0.0,-999,0.00,,,0.00,LWC V2.10 B1813,2013-02-02 06:52:00,
2013-02-01 23:57:00,-999.0,-99.9,29.87,ENE,67,-999.0,0.0,-999,0.00,,,0.00,LWC V2.10 B1813,2013-02-02 06:57:00,